sat.trackr.live / text

‹ back to catalog

STARLINK-32957

NORAD 63124 · 2025-039W

PAYLOAD ACTIVE UNKNOWN

§ Identity

Operator
Country
US
Launch date
2025-02-27
Launch site
AFETR
Launch vehicle
Mass (kg)
RCS (m²)

Purposes: comms

External: N2YO · Heavens-Above · Gunter

§ Orbital elements

Epoch: 2026-09-20T17:29:38.887584Z

Period
94.27 min
Inclination
43.0081°
Eccentricity
0.0003848
Mean motion
15.27599707 rev/d
Perigee alt
480.3 km
Apogee alt
485.6 km
Semi-major
6,861.1 km
B*
3.7259e-4
RAAN
351.4707°
Arg perigee
281.0478°
Mean anomaly
78.9940°
Rev number
8,789

§ Raw data

STARLINK-329571 63124U 25039W   26263.72892231  .00010011  00000+0  37259-3 0  99992 63124  43.0081 351.4707 0003848 281.0478  78.9940 15.27599707 87895

JSON: /api/v1/satellites/63124 · /tle

For live sub-satellite position, see the globe view (requires WebGL).

§ Visibility from observer

Set your observer location to see the next 7 days of passes ≥ 10°. The values pass through the URL so the page stays shareable.

No JS? Fill the form by hand. The geolocation button needs JavaScript.